Location: Bercimuel
(41.3983°N, 3.5711°W)
Time: 16:35:30
(UTC+00:00)

Cosmos 1486 Rocket - Pass Details

Date: 15 May 2026
Orbit: 754 x 779 km, 74.1° (Epoch: 10 June)

Event Time Altitude Azimuth Distance (km) Brightness Sun altitude
Rises 21:55:19 0° 339° (NNW) 3,246 8.6 -21.9°
Reaches altitude 10° 21:57:42 10° 338° (NNW) 2,320 7.6 -22.2°
Maximum altitude 22:02:58 81° 252° (WSW) 788 4.0 -22.7°
Enters shadow 22:04:11 54° 175° (S) 936 4.1 -22.8°
